欧洲卫星公司-8星 (SES-8)

导读

SES 8卫星由SES公司发射,于协调世界时2013年12月3日8时成功进入太空,是一颗商用通信卫星。它主要为亚太区域提供广播、通信等服务,搭载多台转发器,可支持高清电视传输、宽带网络接入等业务,补充区域通信容量,助力提升亚太地区媒体和互联通信服务稳定性,至今已稳定服役十余年。

Basic Information
目录编号:
39460
目录名称:
SES 8
国际标识:
2013-071A
轨道中心:
EARTH
卫星名称:
欧洲卫星公司-8星
卫星全名:
欧洲卫星公司-8星 (SES-8)
卫星状态:
在轨 (已飞行4619 天)
发射日期:
2013-12-03 UTC
国别 :
(SES)
星等 :
--
Orbit Information
数据来源 国际轨道数据 AOE轨道数据
星历时间 2026-07-27T23:27:14+0800
8小时前
查看轨道信息
2026-07-26T23:00:00+0800
1天前
查看轨道信息
半长轴 42163.887km 42164.784km
偏心率 0.0002468 0.0002747
轨道倾角 0.067° 0.060°
近地点辐角 207.451° 216.968°
升交点赤经 261.234° 253.755°
平近点角 163.448° 153.590°
近地点 35775.343km 35775.064km
远地点 35796.157km 35798.23km
周期 1436.054分钟 1436.100分钟
每日圈数 1.002748 1.002716
Detailed Information
卫星平台:
STAR-2.4
平衡模式:
三轴稳定
覆盖范围:
大西洋
运营商:
欧洲卫星公司
运营商所在国:
卢森堡
制造商(研发单位):
轨道ATK公司
制造商所在国:
美国
使用方式:
暂无
Satellite Introduction
欧洲卫星公司:成立于1985年,总部设在卢森堡。该公司通过运营ASTRA、AMERICOM及 NEW SKIES卫星系统为客户提供电视、广播和多媒体直接到户的信息传送服务,是世界第二大卫星运营商。该卫星仍在工作。
2D Orbit Map
3D Orbit Map
Orbit Altitude Analysis Chart
Orbit Inclination Analysis Chart
Orbit Comprehensive Analysis Chart
View Comprehensive Chart